Zurück zum Katalog

DMSP 5D-2 F13 DEB

AktivSSO
NORAD 40447·DEBRIS·🇺🇸 United States

Gestartet Mar 24, 1995 von Vandenberg Space Force Base

Loading…

Nächste Überflüge (nächste 24 Stunden)

TLE

AktuellSource: Space-Track

Epoche: Sep 13, 2026, 00:23 UTC

1 40447U 95015AZ  26256.01604639  .00001443  00000-0  55615-3 0  9996
2 40447  98.6359 282.3268 0013463  74.7624 285.5047 14.31772238598831

Verfolge DMSP 5D-2 F13 DEB in Echtzeit mit AllMySat

Download on the App Store